Location: Cheyres
(46.8153°N, 6.7877°E)
Time: 00:26:07
(UTC+00:00)

Tiros 1 - Pass Details

Date: 02 June 2022
Orbit: 629 x 663 km, 48.4° (Epoch: 05 July)

Event Time Altitude Azimuth Distance (km) Brightness Sun altitude
Rises 02:08:26 0° 286° (WNW) 2,922 10.3 -12.4°
Reaches altitude 10° 02:10:45 10° 285° (WNW) 2,016 9.5 -12.1°
Maximum altitude 02:15:24 77° 200° (SSW) 655 7.0 -11.7°
Drops below altitude 10° 02:20:04 10° 114° (ESE) 2,029 9.9 -11.2°
Sets 02:22:24 0° 113° (ESE) 2,942 10.8 -10.9°
